When you browse on this site, cookies collect data to enhance your experience and personalize the content and advertising you see.
Visit our Privacy Policy to learn more. By continuing to use the site, you agree to this use of cookies and data.
  • In Romania
  • List of Countries
  • For 7 days
  • Water Temperature
  • Satellite Maps
  • Weather Map
  • Weather Widgets
  • user-avatar
    Login

    Hourly Weather Korytnikovo

    Today, 20 January, Sunday

    Time Temperature Precipitation Wind Pressure Humidity
    00:00 -9°C° 0 mm 4 mps 737 mmHg 90%
    01:00 -9°C° 0 mm 4 mps 737 mmHg 89%
    02:00 -8°C° 0 mm 4 mps 737 mmHg 87%
    03:00 -8°C° 0 mm 4 mps 736 mmHg 87%
    04:00 -8°C° 0 mm 5 mps 735 mmHg 87%
    05:00 -10°C° 0 mm 5 mps 735 mmHg 87%
    06:00 -8°C° 0.2 mm 5 mps 734 mmHg 86%
    07:00 -9°C° 0.2 mm 6 mps 734 mmHg 86%
    08:00 -8°C° 0.2 mm 6 mps 733 mmHg 85%
    09:00 -8°C° 0.2 mm 6 mps 733 mmHg 85%
    10:00 -6°C° 0.2 mm 6 mps 733 mmHg 86%
    11:00 -6°C° 0.2 mm 6 mps 733 mmHg 86%
    12:00 -6°C° 0.3 mm 6 mps 732 mmHg 84%
    13:00 -5°C° 0.3 mm 5 mps 732 mmHg 82%
    14:00 -5°C° 0.3 mm 5 mps 732 mmHg 80%
    15:00 -6°C° 0 mm 5 mps 732 mmHg 81%
    16:00 -7°C° 0 mm 5 mps 732 mmHg 82%
    17:00 -8°C° 0 mm 5 mps 732 mmHg 83%
    18:00 -8°C° 0 mm 5 mps 732 mmHg 83%
    19:00 -10°C° 0 mm 5 mps 732 mmHg 84%
    20:00 -10°C° 0 mm 5 mps 732 mmHg 84%
    21:00 -10°C° 0 mm 5 mps 733 mmHg 85%
    22:00 -10°C° 0 mm 4 mps 733 mmHg 86%
    23:00 -10°C° 0 mm 4 mps 734 mmHg 87%

    Tomorrow, 21 January, Monday

    Time Temperature Precipitation Wind Pressure Humidity
    00:00 -11°C° 0 mm 4 mps 734 mmHg 88%
    01:00 -12°C° 0 mm 3 mps 734 mmHg 89%
    02:00 -13°C° 0 mm 3 mps 735 mmHg 91%
    03:00 -13°C° 0 mm 2 mps 735 mmHg 92%
    04:00 -14°C° 0 mm 2 mps 735 mmHg 93%
    05:00 -14°C° 0 mm 2 mps 735 mmHg 95%
    06:00 -15°C° 0 mm 2 mps 735 mmHg 95%
    07:00 -15°C° 0 mm 2 mps 735 mmHg 95%
    08:00 -15°C° 0 mm 2 mps 735 mmHg 95%
    09:00 -14°C° 0.1 mm 2 mps 736 mmHg 92%
    10:00 -15°C° 0.1 mm 3 mps 736 mmHg 89%
    11:00 -14°C° 0.1 mm 3 mps 736 mmHg 86%
    12:00 -15°C° 0 mm 3 mps 737 mmHg 86%
    13:00 -15°C° 0 mm 3 mps 737 mmHg 86%
    14:00 -15°C° 0 mm 3 mps 737 mmHg 87%
    15:00 -16°C° 0 mm 3 mps 737 mmHg 89%
    16:00 -18°C° 0 mm 3 mps 738 mmHg 91%
    17:00 -19°C° 0 mm 3 mps 738 mmHg 94%
    18:00 -21°C° 0 mm 3 mps 738 mmHg 94%
    19:00 -22°C° 0 mm 3 mps 738 mmHg 95%
    20:00 -20°C° 0 mm 2 mps 739 mmHg 96%
    21:00 -21°C° 0 mm 2 mps 739 mmHg 96%
    22:00 -21°C° 0 mm 2 mps 739 mmHg 96%
    23:00 -21°C° 0 mm 2 mps 740 mmHg 97%

    Day after tomorrow, 22 January, Tuesday

    Time Temperature Precipitation Wind Pressure Humidity
    00:00 -21°C° 0 mm 2 mps 740 mmHg 97%
    01:00 -21°C° 0 mm 2 mps 740 mmHg 96%
    02:00 -21°C° 0 mm 2 mps 740 mmHg 96%
    03:00 -21°C° 0 mm 2 mps 740 mmHg 97%
    04:00 -23°C° 0 mm 2 mps 741 mmHg 97%
    05:00 -23°C° 0 mm 2 mps 741 mmHg 97%
    06:00 -23°C° 0 mm 2 mps 741 mmHg 97%
    07:00 -23°C° 0 mm 2 mps 741 mmHg 97%
    08:00 -23°C° 0 mm 2 mps 742 mmHg 97%
    09:00 -21°C° 0 mm 2 mps 742 mmHg 96%
    10:00 -20°C° 0 mm 2 mps 742 mmHg 95%
    11:00 -16°C° 0 mm 1 mps 743 mmHg 94%
    12:00 -16°C° 0 mm 1 mps 743 mmHg 94%
    13:00 -15°C° 0 mm 1 mps 743 mmHg 94%
    14:00 -14°C° 0 mm 1 mps 743 mmHg 94%
    15:00 -16°C° 0 mm 1 mps 743 mmHg 94%
    16:00 -17°C° 0 mm 1 mps 743 mmHg 95%
    17:00 -18°C° 0 mm 1 mps 743 mmHg 95%
    18:00 -19°C° 0 mm 1 mps 743 mmHg 95%
    19:00 -19°C° 0 mm 1 mps 743 mmHg 95%
    20:00 -19°C° 0 mm 1 mps 743 mmHg 94%
    21:00 -20°C° 0 mm 1 mps 743 mmHg 94%
    22:00 -20°C° 0 mm 1 mps 743 mmHg 93%
    23:00 -20°C° 0 mm 1 mps 743 mmHg 92%

    23 January, Wednesday

    Time Temperature Precipitation Wind Pressure Humidity
    00:00 -23°C° 0 mm 2 mps 743 mmHg 93%
    01:00 -23°C° 0 mm 2 mps 743 mmHg 93%
    02:00 -23°C° 0 mm 2 mps 743 mmHg 93%
    03:00 -23°C° 0 mm 2 mps 743 mmHg 94%
    04:00 -23°C° 0 mm 2 mps 743 mmHg 96%
    05:00 -23°C° 0 mm 2 mps 742 mmHg 98%
    06:00 -21°C° 0 mm 2 mps 742 mmHg 98%
    07:00 -21°C° 0 mm 2 mps 742 mmHg 98%
    08:00 -20°C° 0 mm 2 mps 742 mmHg 98%
    09:00 -18°C° 0 mm 2 mps 742 mmHg 96%
    10:00 -17°C° 0 mm 3 mps 742 mmHg 94%
    11:00 -16°C° 0 mm 3 mps 742 mmHg 92%
    12:00 -15°C° 0 mm 3 mps 742 mmHg 91%
    13:00 -14°C° 0 mm 3 mps 742 mmHg 91%
    14:00 -14°C° 0 mm 3 mps 742 mmHg 90%
    15:00 -13°C° 0 mm 3 mps 742 mmHg 90%
    16:00 -12°C° 0 mm 3 mps 742 mmHg 91%
    17:00 -10°C° 0 mm 2 mps 742 mmHg 92%
    18:00 -10°C° 0 mm 3 mps 742 mmHg 91%
    19:00 -10°C° 0 mm 3 mps 742 mmHg 90%
    20:00 -9°C° 0 mm 3 mps 742 mmHg 90%
    21:00 -9°C° 0 mm 3 mps 742 mmHg 90%
    22:00 -10°C° 0 mm 4 mps 742 mmHg 90%
    23:00 -10°C° 0 mm 4 mps 742 mmHg 90%

    24 January, Thursday

    Time Temperature Precipitation Wind Pressure Humidity
    00:00 -10°C° 0 mm 4 mps 742 mmHg 90%
    01:00 -11°C° 0 mm 4 mps 742 mmHg 91%
    02:00 -12°C° 0 mm 3 mps 742 mmHg 92%
    03:00 -13°C° 0 mm 3 mps 743 mmHg 93%
    04:00 -13°C° 0 mm 3 mps 743 mmHg 94%
    05:00 -14°C° 0 mm 3 mps 743 mmHg 95%
    06:00 -13°C° 0 mm 2 mps 743 mmHg 94%
    07:00 -14°C° 0 mm 2 mps 743 mmHg 94%
    08:00 -14°C° 0 mm 2 mps 743 mmHg 94%
    09:00 -14°C° 0 mm 2 mps 743 mmHg 92%
    10:00 -13°C° 0 mm 2 mps 744 mmHg 90%
    11:00 -10°C° 0 mm 1 mps 744 mmHg 88%
    12:00 -10°C° 0 mm 1 mps 744 mmHg 88%
    13:00 -10°C° 0 mm 1 mps 744 mmHg 89%
    14:00 -9°C° 0 mm 0 mps 744 mmHg 89%
    15:00 -10°C° 0 mm 0 mps 744 mmHg 89%
    16:00 -11°C° 0 mm 0 mps 744 mmHg 89%
    17:00 -13°C° 0 mm 0 mps 744 mmHg 90%
    18:00 -13°C° 0 mm 1 mps 744 mmHg 90%
    19:00 -14°C° 0 mm 1 mps 744 mmHg 90%
    20:00 -14°C° 0 mm 1 mps 744 mmHg 90%
    21:00 -14°C° 0 mm 1 mps 744 mmHg 90%
    22:00 -15°C° 0 mm 1 mps 744 mmHg 90%
    23:00 -15°C° 0 mm 1 mps 744 mmHg 90%

    25 January, Friday

    Time Temperature Precipitation Wind Pressure Humidity
    00:00 -16°C° 0 mm 1 mps 744 mmHg 90%
    01:00 -18°C° 0 mm 2 mps 745 mmHg 90%
    02:00 -18°C° 0 mm 2 mps 745 mmHg 91%
    03:00 -17°C° 0 mm 2 mps 744 mmHg 90%
    04:00 -17°C° 0 mm 2 mps 744 mmHg 90%
    05:00 -16°C° 0 mm 2 mps 744 mmHg 89%
    06:00 -16°C° 0 mm 2 mps 744 mmHg 89%
    07:00 -16°C° 0 mm 2 mps 744 mmHg 89%
    08:00 -17°C° 0 mm 3 mps 744 mmHg 90%
    09:00 -17°C° 0 mm 3 mps 744 mmHg 89%
    10:00 -17°C° 0 mm 3 mps 744 mmHg 88%
    11:00 -16°C° 0 mm 3 mps 744 mmHg 87%
    12:00 -16°C° 0 mm 3 mps 743 mmHg 87%
    13:00 -16°C° 0 mm 3 mps 743 mmHg 87%
    14:00 -15°C° 0 mm 3 mps 743 mmHg 87%
    15:00 -16°C° 0 mm 3 mps 742 mmHg 89%
    16:00 -16°C° 0 mm 3 mps 742 mmHg 90%
    17:00 -16°C° 0 mm 3 mps 742 mmHg 91%
    18:00 -16°C° 0 mm 3 mps 742 mmHg 91%
    19:00 -16°C° 0 mm 3 mps 741 mmHg 92%
    20:00 -16°C° 0 mm 3 mps 741 mmHg 93%
    21:00 -16°C° 0.1 mm 3 mps 741 mmHg 93%
    22:00 -16°C° 0.1 mm 3 mps 740 mmHg 94%
    23:00 -15°C° 0.1 mm 2 mps 740 mmHg 95%
    Show more